Queretaro Airport,

4:18 PM CDT on May 23, 2018 (GMT -0500)
Queretaro Airport

Weather History for MMQT - July, 2013

Change the Weather History Date:

Monday, July 29, 2013

  Actual Average Record
Temperature  
Mean Temperature 70 °F -  
Max Temperature 86 °F 76 °F 88 °F (2014)
Min Temperature 53 °F 56 °F 53 °F (2000)
Cooling Degree Days 4    
Growing Degree Days 20 (Base 50)    
Moisture  
Dew Point 48 °F    
Average Humidity 50    
Maximum Humidity 82    
Minimum Humidity 17    
Precipitation  
Precipitation 0.00 in - - ()
Sea Level Pressure  
Sea Level Pressure 30.19 in    
Wind  
Wind Speed 3 mph ()    
Max Wind Speed 17 mph    
Max Gust Speed -    
Visibility 7.1 miles    
Events      
Averages and records for this station are not official NWS values.
T = Trace of Precipitation, MM = Missing Value Source: Averaged Metar Reports

Daily Weather History Graph

Daily Weather History Graph

Search for Another Location

Airport or City:

Astronomy

Jul. 29, 2013 Rise Set
Actual Time 7:14 AM CDT 8:19 PM CDT
Civil Twilight 6:50 AM CDT 8:43 PM CDT
Nautical Twilight 6:22 AM CDT 9:11 PM CDT
Astronomical Twilight 5:53 AM CDT 9:40 PM CDT
Moon 12:45 AM CDT (7/29) 1:51 PM CDT (7/29)
Length of Visible Light 13h 53m
Length of Day
13h 05m
Waning Gibbous, 50% of the Moon is Illuminated
Jul 29
Waning Gibbous
Jul 29
Last Quarter
Aug 6
New
Aug 14
First Quarter
Aug 20
Full

Hourly Weather History & Observations

Time (CDT) Temp. Dew Point Humidity Pressure Visibility Wind Dir Wind Speed Gust Speed Precip Events Conditions
12:45 AM 65 °F 54 °F 60% 29.78 in 6 mi West 2.2 mph - -   Scattered Clouds
12:50 AM 60.8 °F 48.2 °F 63% 30.31 in 7.0 mi Calm Calm - N/A   Scattered Clouds
1:45 AM 60.8 °F 48.2 °F 63% 30.31 in 6.0 mi Calm Calm - N/A   Scattered Clouds
2:50 AM 59.0 °F 48.2 °F 67% 30.31 in 6.0 mi Calm Calm - N/A   Scattered Clouds
3:40 AM 62 °F 55 °F 70% 29.89 in 6 mi West 2.2 mph - -   Scattered Clouds
3:50 AM 57.2 °F 48.2 °F 72% 30.31 in 6.0 mi Calm Calm - N/A   Scattered Clouds
4:45 AM 55.4 °F 48.2 °F 77% 30.30 in 5.0 mi Calm Calm - N/A   Scattered Clouds
5:45 AM 53.6 °F 48.2 °F 82% 30.31 in 4.0 mi Calm Calm - N/A   Mostly Cloudy
6:40 AM 62 °F 55 °F 70% 29.86 in 6 mi East 6.7 mph - -   Partly Cloudy
6:45 AM 53.6 °F 48.2 °F 82% 30.32 in 4.0 mi Calm Calm - N/A   Mostly Cloudy
7:45 AM 57.2 °F 46.4 °F 67% 30.32 in 4.0 mi Calm Calm - N/A   Mostly Cloudy
8:45 AM 60.8 °F 46.4 °F 59% 30.32 in 3.0 mi Calm Calm - N/A   Mostly Cloudy
9:40 AM 67 °F 56 °F 60% 29.95 in 16 mi East 11.2 mph - -   Partly Cloudy
9:45 AM 62.6 °F 44.6 °F 52% 30.34 in 3.0 mi Calm Calm - N/A   Mostly Cloudy
10:45 AM 64.4 °F 42.8 °F 45% 30.35 in 3.0 mi East 6.9 mph - N/A   Haze
11:45 AM 66.2 °F 42.8 °F 43% 30.36 in 4.0 mi East 9.2 mph - N/A   Mostly Cloudy
12:45 PM 73.4 °F 42.8 °F 33% 30.35 in 4.0 mi East 11.5 mph - N/A   Mostly Cloudy
12:55 PM 78 °F 56 °F 35% 29.91 in 16 mi East 4.5 mph - -   Scattered Clouds
1:45 PM 80.6 °F 44.6 °F 28% 30.36 in 4.0 mi East 6.9 mph - N/A   Mostly Cloudy
2:45 PM 80.6 °F 46.4 °F 30% 30.33 in 6.0 mi Calm Calm - N/A   Scattered Clouds
3:45 PM 80.6 °F 46.4 °F 30% 30.30 in 8.0 mi Calm Calm - N/A   Scattered Clouds
3:50 PM 80 °F 51 °F 26% 29.80 in 14 mi NNE 4.5 mph - -   Partly Cloudy
4:45 PM 80.6 °F 46.4 °F 30% 29.99 in 8.0 mi Calm Calm - N/A   Scattered Clouds
5:45 PM 84.2 °F 48.2 °F 29% 30.26 in 8.0 mi Calm Calm - N/A   Scattered Clouds
6:45 PM 77.0 °F 44.6 °F 32% 30.26 in 8.0 mi Calm Calm - N/A   Scattered Clouds
6:50 PM 84 °F 46 °F 17% 29.67 in 14 mi NE 4.5 mph - -   Scattered Clouds
7:45 PM 73.4 °F 44.6 °F 36% 30.27 in 7.0 mi NNE 16.1 mph - N/A   Mostly Cloudy
8:45 PM 68.0 °F 42.8 °F 40% 30.29 in 7.0 mi NNE 17.3 mph - N/A   Mostly Cloudy
9:45 PM 64.4 °F 46.4 °F 52% 30.36 in 7.0 mi NNE 6.9 mph - N/A   Scattered Clouds
9:55 PM 71 °F 53 °F 42% 29.70 in 14 mi SE 11.2 mph - -   Scattered Clouds
10:45 PM 62.6 °F 44.6 °F 52% 30.36 in 7.0 mi NNE 6.9 mph - N/A   Scattered Clouds
11:45 PM 60.8 °F 46.4 °F 59% 30.38 in 7.0 mi Calm Calm - N/A   Scattered Clouds